Wind_Speed
4 3 3 2 2 2 3 4 3 4 6 7 7 7 6 6 5 5 5 5 4 4 4 4 4 4 5 5 6 7 7 7 7 7 6 6 6 5 5 5 5 6 6
5 4 3 2 2 3 2 1 2 2 3 5 7 6 5 6 6 6 6 5 5 5 5 5 5 5 5 6 7 8 8 8 8 8 8 8 8 7 7 6 6 6 7
4 3 3 3 2 1 2 1 1 0 1 2 4 5 5 6 6 7 6 5 5 6 6 6 6 6 6 6 8 8 8 8 9 9 9 9 9 9 9 9 9 9 9
4 3 3 2 2 2 1 1 0 0 1 2 3 4 4 4 5 6 6 6 6 6 6 6 6 6 6 6 7 8 8 9 9 9 10 10 11 11 10 10 11 11 11
5 3 2 2 3 2 2 1 1 1 1 2 3 4 4 5 4 4 5 6 6 6 6 6 7 6 7 7 7 7 8 9 9 10 10 10 11 11 12 11 12 12 13
5 4 3 3 3 3 2 2 1 0 1 1 2 3 3 4 4 3 4 5 6 7 7 7 7 7 7 7 7 8 8 9 10 11 11 11 12 12 13 13 12 13 13
5 5 4 3 3 3 3 2 2 1 1 1 0 1 2 2 3 3 4 5 6 7 7 7 8 8 8 8 8 9 9 9 10 11 12 12 12 13 13 14 13 13 13
5 5 5 4 4 3 3 3 2 2 1 1 1 2 2 3 4 4 5 6 7 8 8 8 8 9 8 9 9 9 10 10 11 12 13 13 13 14 14 15 15 15 15
5 4 4 4 4 3 3 3 3 2 2 2 3 3 4 4 5 6 6 7 7 8 9 9 9 10 9 10 10 10 11 11 11 12 13 14 15 15 15 15 15 16 17
5 4 4 4 3 3 3 4 3 3 3 3 3 4 5 6 6 7 7 7 8 9 9 10 10 11 11 11 11 11 11 13 13 13 13 14 15 15 16 16 16 17 18
5 5 4 4 4 4 4 4 3 4 4 4 5 5 6 7 7 7 8 9 9 9 10 11 11 11 12 13 13 13 13 14 14 13 14 15 16 17 17 17 17 18 18
6 6 5 4 5 5 5 4 4 5 5 5 6 6 7 7 8 8 9 9 9 9 9 10 11 12 13 13 14 13 14 14 14 14 14 14 15 17 18 19 18 18 17
7 6 6 5 5 5 5 6 5 5 6 7 7 8 8 8 9 9 9 10 10 10 10 11 11 12 13 13 14 13 13 14 14 15 14 14 15 16 17 18 17 17 17
8 7 6 6 6 5 5 6 6 7 7 8 8 9 9 9 10 10 11 11 11 12 12 12 13 13 13 13 14 14 14 15 16 15 15 15 16 17 17 17 17 17 17
8 8 7 7 6 6 6 6 7 7 8 8 8 9 10 10 11 11 12 12 12 13 13 13 13 14 14 14 14 15 16 16 17 17 17 16 17 17 17 17 17 17 18
9 8 8 8 7 7 7 7 8 9 9 9 9 10 10 11 12 12 12 12 13 12 12 13 13 14 15 15 15 16 16 17 18 18 17 17 17 17 17 17 18 18 18
10 10 10 9 9 8 8 8 9 9 10 10 11 11 12 12 12 12 12 13 13 13 13 13 14 15 16 16 17 17 17 17 17 17 17 17 18 17 17 18 19 19 19
11 11 11 11 11 10 10 10 10 11 12 12 13 13 14 14 14 14 14 14 14 15 15 15 15 16 16 17 18 18 18 18 18 18 18 19 18 18 18 19 19 19 20
11 12 12 12 13 13 14 14 14 14 14 14 15 15 15 15 15 15 14 14 15 15 16 17 17 17 17 17 18 18 19 19 18 18 19 19 19 19 19 19 19 20 21
13 13 14 14 14 15 15 15 16 16 16 16 16 16 16 16 16 17 17 17 16 16 17 18 18 17 17 17 18 18 19 19 19 19 19 19 20 20 20 20 21 21 22
15 15 15 16 16 16 16 17 17 18 18 17 17 17 17 17 18 18 18 18 17 17 17 17 17 17 17 17 18 19 19 19 20 19 19 20 21 21 21 22 23 23 23
18 18 17 18 17 17 18 19 19 19 19 19 18 18 18 18 18 18 19 19 19 19 19 18 18 18 18 18 19 20 19 19 19 20 20 21 21 22 23 24 24 24 24
20 20 20 20 19 19 20 20 21 21 20 20 20 20 20 20 19 19 19 19 20 20 20 19 19 19 19 19 19 19 19 20 20 20 19 19 20 21 22 23 23 24 24
22 22 22 22 21 21 22 22 22 22 22 21 21 21 21 21 21 21 20 20 20 21 21 21 20 19 19 19 19 20 20 21 21 20 19 19 19 20 20 21 22 23 23
24 24 24 24 24 23 23 23 23 24 23 23 22 22 23 22 22 22 22 22 21 21 22 22 22 21 20 20 21 21 21 22 21 20 20 20 20 21 21 20 21 22 23
26 25 25 25 25 25 25 25 25 25 24 24 24 24 24 23 23 23 23 23 22 23 23 23 23 23 23 23 22 22 23 23 23 22 21 21 21 21 21 21 21 22 22
Wind_Direction
96 95 115 108 147 162 185 204 215 223 224 224 223 220 225 228 228 231 232 225 229 236 249 252 263 258 255 250 244 242 246 247 247 242 242 245 247 249 248 256 254 254 259
86 86 92 88 143 171 174 194 225 240 232 223 222 224 231 231 236 235 237 235 238 238 243 249 258 258 257 256 250 247 246 249 248 246 249 251 256 258 255 255 257 263 265
88 94 92 83 91 176 210 172 156 268 218 222 229 230 234 239 242 242 242 241 242 242 243 249 260 258 262 266 259 254 250 251 250 252 255 255 257 262 259 258 258 264 265
71 81 86 75 97 117 170 194 223 288 220 218 230 228 238 247 246 245 243 244 248 250 252 257 261 262 263 264 265 257 254 256 255 259 260 260 261 261 261 263 262 266 264
62 66 79 77 78 67 43 13 326 264 243 247 236 230 238 245 248 245 247 249 254 256 257 262 265 268 267 265 266 263 262 261 259 262 265 266 264 262 262 267 269 268 266
53 57 57 64 60 49 38 35 17 322 268 270 249 242 240 248 256 256 254 255 258 262 262 264 265 269 269 270 270 268 268 265 260 260 262 266 268 265 266 267 270 270 270
47 41 52 53 52 46 31 29 27 33 22 11 277 231 248 268 276 280 274 268 268 270 269 270 269 272 270 268 268 268 267 266 262 260 262 263 265 266 268 268 269 270 271
36 37 44 43 42 36 24 17 20 29 13 327 300 294 290 278 280 286 285 279 276 275 276 274 274 272 270 271 269 269 269 268 266 264 263 264 265 265 268 270 268 267 267
30 30 32 28 27 21 13 13 13 10 353 323 293 289 295 288 281 284 285 283 276 275 277 274 274 273 270 275 273 271 271 270 270 270 266 266 267 268 270 269 268 267 268
30 24 15 12 11 14 7 1 358 348 330 318 307 294 291 292 286 283 286 283 277 277 276 276 275 273 272 274 274 273 275 272 273 273 273 272 271 270 269 268 270 268 267
19 16 3 353 353 355 346 339 340 336 328 314 304 296 293 295 291 286 289 288 286 284 280 278 275 277 276 273 272 276 276 274 275 276 276 275 272 269 267 266 268 267 267
7 5 357 343 339 336 335 328 322 318 316 317 311 303 298 298 295 292 291 289 287 289 286 283 280 279 278 277 277 278 278 276 276 276 276 276 274 270 267 264 266 268 269
5 0 355 347 339 330 329 323 316 315 313 312 310 308 305 301 297 294 291 289 287 286 286 286 286 285 282 280 279 278 279 281 279 277 276 275 274 273 270 268 269 268 269
357 355 351 344 338 331 324 320 316 310 307 308 309 309 306 304 299 294 293 292 288 286 285 286 286 287 285 283 280 278 279 279 279 278 275 272 273 272 271 270 269 269 271
345 346 346 341 335 328 319 312 312 308 308 306 310 311 308 306 303 298 294 293 290 288 287 288 291 291 289 285 284 283 281 280 281 278 278 276 275 274 273 270 270 269 271
336 331 329 329 325 320 313 309 309 309 309 311 310 311 310 308 306 304 300 297 296 292 291 290 293 292 291 288 287 286 286 283 281 281 282 280 278 273 273 271 270 271 273
326 324 319 316 314 312 309 307 309 313 313 311 309 306 306 306 304 302 299 295 292 291 290 290 290 291 290 290 292 291 292 288 284 282 281 280 278 276 273 272 272 273 274
319 316 313 311 308 307 306 306 305 306 305 305 303 302 301 301 300 298 296 292 290 289 290 289 289 289 289 291 293 294 295 293 287 283 281 279 278 277 276 275 274 275 274
320 315 311 308 305 305 303 303 304 303 303 303 302 300 298 299 298 298 297 295 291 291 291 291 289 289 290 292 294 296 295 294 294 289 284 280 277 277 279 278 276 275 276
312 309 309 305 302 304 303 300 301 304 303 302 301 299 295 295 296 294 295 293 291 292 292 292 289 288 290 292 293 293 293 290 290 291 287 284 281 280 279 279 279 278 278
306 305 304 304 301 302 304 302 301 303 304 302 299 297 295 295 295 294 293 292 291 292 293 291 290 287 288 291 294 293 295 293 290 290 290 285 281 279 279 279 279 279 279
302 302 301 302 300 301 301 300 299 300 300 300 298 295 294 297 297 295 294 292 291 293 294 292 292 291 291 293 293 293 293 294 291 288 288 284 280 279 279 279 280 279 277
299 299 299 300 298 297 298 298 296 297 296 296 295 292 291 294 294 294 293 292 292 292 293 294 293 292 291 291 293 294 295 295 295 294 290 289 284 283 284 282 280 280 280
294 295 296 296 296 295 294 295 295 295 293 292 292 292 291 292 291 291 292 291 290 290 291 292 294 291 289 290 292 294 294 295 295 295 292 291 289 287 287 285 284 283 281
291 293 293 292 293 292 292 293 293 293 291 289 288 288 289 287 288 289 289 289 288 288 289 291 292 291 289 290 291 292 292 293 294 293 290 288 287 288 290 290 288 286 284
290 290 290 289 289 290 291 290 290 291 291 290 288 288 288 287 287 286 287 286 287 287 287 288 289 290 289 288 289 290 291 291 291 290 289 288 287 288 289 290 291 290 288
Height
5890 5890 5889 5890 5890 5889 5889 5889 5889 5890 5890 5890 5891 5891 5892 5892 5892 5892 5892 5892 5892 5892 5892 5892 5891 5891 5891 5891 5891 5891 5891 5891 5891 5891 5891 5891 5891 5891 5891 5891 5891 5891 5891
5890 5890 5890 5890 5889 5889 5889 5889 5889 5889 5889 5889 5890 5890 5891 5891 5891 5891 5891 5891 5891 5890 5891 5890 5890 5890 5890 5889 5889 5889 5889 5889 5889 5889 5889 5890 5889 5889 5889 5889 5889 5889 5889
5890 5890 5890 5890 5889 5889 5889 5889 5889 5889 5888 5889 5889 5890 5890 5890 5890 5889 5889 5889 5889 5889 5889 5889 5889 5888 5888 5888 5887 5887 5887 5887 5887 5887 5888 5888 5888 5888 5888 5888 5888 5888 5888
5890 5890 5890 5890 5889 5889 5889 5889 5889 5889 5888 5888 5888 5889 5889 5889 5888 5888 5888 5888 5888 5887 5887 5887 5887 5886 5886 5886 5885 5885 5885 5885 5885 5885 5885 5885 5885 5885 5886 5886 5886 5886 5885
5891 5890 5890 5890 5889 5889 5889 5889 5888 5888 5888 5888 5888 5888 5887 5887 5887 5886 5886 5886 5886 5886 5885 5885 5885 5884 5884 5884 5883 5883 5883 5883 5883 5883 5883 5883 5883 5883 5883 5883 5883 5883 5883
5891 5890 5890 5889 5889 5889 5889 5888 5888 5887 5887 5887 5887 5887 5886 5886 5886 5885 5885 5885 5884 5884 5884 5883 5883 5882 5882 5881 5881 5881 5880 5880 5880 5880 5880 5880 5880 5880 5880 5880 5880 5880 5880
5891 5890 5890 5889 5889 5889 5888 5888 5887 5887 5887 5886 5886 5886 5885 5885 5885 5884 5884 5883 5882 5882 5882 5881 5881 5880 5880 5879 5879 5878 5878 5878 5878 5878 5878 5877 5877 5877 5877 5877 5877 5877 5876
5891 5890 5889 5889 5889 5888 5888 5887 5887 5886 5886 5886 5886 5885 5885 5885 5883 5883 5882 5881 5881 5880 5880 5879 5878 5878 5878 5877 5877 5876 5876 5875 5875 5875 5874 5874 5874 5874 5874 5874 5873 5873 5873
5891 5890 5889 5889 5888 5888 5888 5887 5886 5886 5885 5885 5885 5884 5884 5883 5882 5881 5880 5879 5879 5878 5878 5877 5876 5875 5874 5874 5874 5873 5872 5872 5872 5871 5871 5871 5871 5870 5870 5870 5869 5869 5869
5892 5890 5890 5889 5888 5888 5887 5886 5886 5885 5884 5884 5883 5883 5882 5882 5880 5880 5879 5878 5877 5876 5875 5874 5873 5873 5871 5871 5870 5870 5869 5869 5868 5868 5868 5867 5867 5866 5866 5866 5865 5865 5865
5892 5891 5890 5889 5888 5887 5886 5885 5885 5884 5883 5882 5882 5881 5880 5879 5878 5878 5877 5876 5874 5873 5872 5871 5871 5870 5869 5868 5867 5866 5866 5865 5865 5864 5864 5863 5863 5862 5862 5861 5861 5861 5860
5892 5890 5889 5888 5887 5886 5885 5884 5884 5883 5882 5881 5880 5879 5878 5877 5876 5875 5874 5873 5872 5871 5870 5869 5868 5867 5866 5865 5864 5863 5862 5861 5861 5860 5859 5859 5858 5857 5857 5856 5856 5856 5856
5891 5890 5889 5887 5886 5885 5884 5883 5882 5882 5881 5879 5878 5877 5876 5875 5874 5873 5871 5870 5869 5868 5867 5866 5865 5863 5862 5862 5861 5860 5859 5858 5857 5856 5855 5854 5854 5853 5852 5852 5852 5851 5851
5890 5889 5887 5886 5885 5884 5883 5882 5881 5880 5878 5877 5876 5875 5874 5872 5871 5869 5868 5867 5866 5865 5864 5863 5862 5860 5859 5858 5857 5856 5855 5854 5853 5852 5851 5850 5849 5849 5848 5848 5847 5847 5846
5889 5888 5886 5885 5883 5882 5881 5880 5879 5877 5876 5874 5873 5872 5871 5869 5868 5866 5865 5864 5863 5862 5861 5859 5858 5856 5855 5854 5853 5852 5851 5850 5849 5847 5846 5845 5845 5844 5844 5843 5843 5842 5842
5888 5886 5885 5883 5882 5881 5879 5878 5876 5875 5874 5872 5870 5869 5868 5866 5865 5863 5861 5860 5859 5858 5857 5856 5854 5853 5851 5850 5848 5847 5846 5845 5844 5842 5841 5840 5840 5839 5839 5838 5838 5837 5837
5886 5884 5883 5881 5880 5878 5877 5875 5874 5873 5871 5869 5868 5866 5865 5863 5861 5860 5858 5856 5855 5854 5853 5852 5850 5849 5847 5845 5844 5842 5841 5839 5838 5837 5836 5835 5835 5834 5834 5833 5832 5832 5831
5884 5882 5880 5879 5877 5875 5874 5872 5871 5869 5868 5866 5865 5863 5861 5859 5858 5856 5854 5853 5851 5850 5849 5847 5846 5844 5843 5841 5839 5838 5836 5834 5833 5832 5831 5830 5830 5829 5829 5828 5827 5826 5825
5881 5879 5877 5876 5874 5872 5870 5869 5867 5866 5864 5862 5860 5859 5857 5855 5854 5852 5850 5849 5847 5846 5844 5843 5841 5840 5838 5837 5835 5833 5831 5830 5828 5827 5826 5825 5824 5824 5823 5822 5822 5820 5820
5877 5875 5873 5872 5870 5868 5866 5865 5863 5862 5860 5858 5856 5854 5852 5851 5849 5848 5846 5845 5843 5841 5840 5838 5836 5835 5834 5832 5830 5828 5827 5825 5823 5822 5820 5819 5819 5818 5817 5816 5816 5814 5813
5873 5871 5869 5867 5865 5864 5862 5860 5858 5857 5855 5853 5851 5850 5848 5846 5844 5843 5841 5840 5838 5836 5834 5833 5831 5830 5829 5827 5825 5823 5821 5819 5817 5816 5815 5814 5813 5812 5811 5810 5809 5808 5807
5868 5866 5864 5862 5860 5859 5857 5855 5853 5852 5850 5848 5846 5845 5843 5841 5839 5837 5836 5835 5833 5831 5829 5828 5826 5825 5823 5822 5820 5818 5816 5814 5812 5811 5809 5808 5806 5805 5804 5803 5802 5801 5800
5863 5861 5859 5857 5855 5853 5851 5849 5847 5846 5844 5842 5840 5839 5837 5836 5834 5832 5831 5829 5828 5826 5824 5822 5820 5819 5818 5816 5814 5813 5811 5809 5807 5805 5803 5802 5800 5799 5797 5796 5795 5794 5792
5857 5855 5853 5851 5849 5847 5845 5843 5841 5839 5838 5836 5834 5833 5831 5830 5828 5826 5825 5823 5822 5820 5818 5817 5815 5813 5812 5810 5808 5807 5805 5803 5802 5799 5797 5796 5794 5792 5791 5789 5788 5786 5785
5849 5847 5845 5843 5842 5840 5838 5836 5834 5832 5831 5829 5828 5826 5825 5823 5821 5820 5818 5817 5816 5814 5812 5811 5809 5807 5805 5804 5802 5801 5799 5797 5796 5794 5791 5790 5788 5786 5785 5783 5782 5780 5778
5841 5839 5837 5836 5834 5832 5831 5829 5827 5825 5824 5822 5821 5819 5818 5816 5814 5813 5811 5810 5809 5808 5806 5804 5803 5801 5800 5798 5796 5795 5793 5791 5789 5788 5786 5784 5782 5780 5779 5778 5776 5774 5772